Weather Roundup
Issued by NWS

Home | Current Version | Previous Version | Text Only | Print | Product List | Glossary On
Versions: 1 2 3 4 5 6 7 8 9 10 11 12 13 14 15 16 17 18 19 20 21 22 23 24 25 26 27 28 29 30 31 32 33 34 35 36 37 38 39 40 41 42 43 44 45 46 47 48 49 50
000
NZUS93 KARX 291110
HRRWXR

CURRENT HOURLY OBSERVATIONS ACROSS
MUCH OF THE UPPER MISSISSIPPI VALLEY
NATIONAL WEATHER SERVICE LA CROSSE WI
600 AM CDT SUN MAY 29 2016


...SOUTHEAST MINNESOTA...


CITY           SKY/WX    TMP DP  RH WIND       PRES   REMARKS
ROCHESTER      CLOUDY    60  59  96 W13       29.91R
ROCHESTER/MAYO CLOUDY    60  60 100 W12       29.90R
WINONA         CLOUDY    63  59  88 W9        29.87R
AUSTIN         PTCLDY    61  57  88 W6        29.92R FOG
ALBERT LEA     PTCLDY    57  57 100 W6        29.92R FOG
DODGE CENTER   MOCLDY    59  57  94 W10       29.90R FOG
PRESTON        CLOUDY    60  57  91 W9        29.91R
OWATONNA       LGT RAIN  61  57  88 W12       29.90S
FARIBAULT      CLOUDY    61  59  94 SW7       29.90R
$$

...ELSEWHERE IN MINNESOTA...


CITY           SKY/WX    TMP DP  RH WIND       PRES   REMARKS
MINNEAPOLIS    CLOUDY    62  59  90 W8        29.86R
INTNL FALLS    LGT RAIN  55  55 100 W7        29.79R VSB 1/2
DULUTH         CLOUDY    57  56  96 W7        29.79R FOG
RED WING       CLOUDY    61  59  94 W5        29.86R FOG
REDWOOD FALLS  PTCLDY    59  55  87 W9        29.92R
MANKATO        CLOUDY    61  55  82 W9        29.91R
WORTHINGTON    CLOUDY    58  57  97 W10       29.98S
FAIRMONT       MOCLDY    57  54  88 W9        29.94R
$$

...SOUTHWEST WISCONSIN...


CITY           SKY/WX    TMP DP  RH WIND       PRES   REMARKS
LA CROSSE      CLOUDY    64  60  87 W5        29.86R
PRAIRIE DU CHI PTCLDY    64  59  84 SW7       29.89R
BOSCOBEL       CLOUDY    64  61  90 SW6       29.88R
LONE ROCK      CLOUDY    64  59  83 SW8       29.88R
PLATTEVILLE    CLOUDY    63  61  92 SW15      29.91R
FORT MC COY    CLOUDY    62  61  96 SW3       29.86R
CAMP DOUGLAS   MOCLDY    62  62 100 S3        29.85R
MAUSTON-NEW LI CLOUDY    62  60  93 CALM      29.85R
VIROQUA        CLOUDY    61  61 100 SW7       29.88R
WIS DELLS      PTCLDY    62  58  88 SW8       29.87S
$$

...ELSEWHERE IN WISCONSIN...


CITY           SKY/WX    TMP DP  RH WIND       PRES   REMARKS
MILWAUKEE      PTCLDY    64  62  93 S7        29.93R
MADISON        PTCLDY    64  58  80 S9        29.89R
GREEN BAY      CLEAR     64  62  93 S8        29.86R
EAU CLAIRE     CLOUDY    61  60  97 W8        29.84R
BLACK RVR FLS  CLOUDY    61  61 100 SW3       29.84R
MEDFORD        CLOUDY    58  58 100 SW3       29.84R
WAUSAU         CLOUDY    65  61  87 SW7       29.82S
WIS RAPIDS     CLOUDY    64  59  83 SW7       29.86R
MARSHFIELD     MOCLDY    61  59  93 SW7       29.84R
RICE LAKE      MOCLDY    60  58  93 CALM      29.85R
$$

...NORTHEAST IOWA...


CITY           SKY/WX    TMP DP  RH WIND       PRES   REMARKS
WATERLOO       MOCLDY    62  59  90 W9        29.94R
DUBUQUE        CLOUDY    62  59  90 SW13      29.92R
DECORAH        CLOUDY    61  61 100 VRB7      29.90R
MASON CITY     CLEAR     59  58  96 W12       29.96R
CHARLES CITY   PTCLDY    61  61 100 W10       29.94R
OELWEIN        CLOUDY    63  63 100 W15G22    29.95R
$$

...ELSEWHERE IN IOWA...


CITY           SKY/WX    TMP DP  RH WIND       PRES   REMARKS
DES MOINES     PTCLDY    59  55  87 W5        30.00R
IOWA CITY      PTCLDY    63  58  83 W9        29.98R
FORT DODGE     CLEAR     57  54  88 W6        29.98R
MARSHALLTOWN   CLEAR     60  59  96 W9        29.96R
CEDAR RAPIDS   PTCLDY    60  60 100 W10       29.95R
$$

...NORTHERN ILLINOIS...


CITY           SKY/WX    TMP DP  RH WIND       PRES   REMARKS
CHICAGO-OHARE  PTCLDY    64  61  90 SW8       29.97R
CHICAGO-MIDWAY PTCLDY    65  60  84 SW8       29.98R
MOLINE         CLEAR     66  58  75 SW10      29.95R
ROCKFORD       CLEAR     64  60  87 S7        29.97R
PEORIA         CLEAR     64  61  90 S8        30.00R
$$

NOTE: "FAIR" INDICATES FEW OR NO CLOUDS BELOW 12,000 FEET WITH NO
SIGNIFICANT WEATHER AND/OR OBSTRUCTIONS TO VISIBILITY. WIND
SPEEDS ARE IN MILES-PER-HOUR.




USA.gov is the U.S. government's official web portal to all federal, state and local government web resources and services.